Weather History for Kendall, FL

Change the Weather History Date:

Wednesday, October 3, 2012

  Actual Average Record
Temperature  
Mean Temperature 82 °F -  
Max Temperature 90 °F 87 °F 92 °F (1989)
Min Temperature 75 °F 73 °F 66 °F (2001)
Cooling Degree Days 18    
Growing Degree Days 32 (Base 50)    
Moisture  
Dew Point 76 °F    
Average Humidity 82    
Maximum Humidity 100    
Minimum Humidity 63    
Precipitation  
Precipitation 0.00 in - - ()
Sea Level Pressure  
Sea Level Pressure 30.09 in    
Wind  
Wind Speed 5 mph (ESE)    
Max Wind Speed 14 mph    
Max Gust Speed 17 mph    
Visibility 10 miles    
Events      
Averages and records for this station are not official NWS values.
T = Trace of Precipitation, MM = Missing Value Source: NWS Daily Summary

Daily Weather History Graph

Daily Weather History Graph

Search for Another Location

Airport:

Trip Planner

Search our weather history database for the weather conditions in past years. The results will help you decide how hot, cold, wet, or windy it might be!

Date:

Astronomy

Oct. 03, 2012 Rise Set
Actual Time 7:15 AM EDT 7:05 PM EDT
Civil Twilight 6:52 AM EDT 7:28 PM EDT
Nautical Twilight 6:25 AM EDT 7:55 PM EDT
Astronomical Twilight 5:58 AM EDT 8:21 PM EDT
Moon 9:21 PM EDT (10/3) 10:13 AM EDT (10/3)
Length of Visible Light 12h 36m
Length of Day
11h 50m
Waning Gibbous, 89% of the Moon is Illuminated
Oct 3
Waning Gibbous
Oct 8
Last Quarter
Oct 15
New
Oct 21
First Quarter
Oct 29
Full

Hourly Weather History & Observations

Time (EDT) Temp. Heat Index Dew Point Humidity Pressure Visibility Wind Dir Wind Speed Gust Speed Precip Events Conditions
12:53 AM 77.0 °F - 73.9 °F 90% 30.06 in 10.0 mi ESE 3.5 mph - N/A   Scattered Clouds
1:53 AM 77.0 °F - 75.0 °F 94% 30.06 in 10.0 mi East 3.5 mph - N/A   Partly Cloudy
2:53 AM 77.0 °F - 75.0 °F 94% 30.06 in 10.0 mi Calm Calm - N/A   Clear
3:53 AM 75.9 °F - 73.9 °F 94% 30.06 in 10.0 mi WNW 4.6 mph - N/A   Clear
4:53 AM 75.9 °F - 75.0 °F 97% 30.06 in 10.0 mi Calm Calm - N/A   Clear
5:53 AM 75.0 °F - 73.9 °F 96% 30.07 in 10.0 mi Calm Calm - N/A   Partly Cloudy
6:40 AM 75.2 °F - 75.2 °F 100% 30.08 in 10.0 mi Calm Calm - N/A   Mostly Cloudy
6:48 AM 75.2 °F - 75.2 °F 100% 30.08 in 10.0 mi ENE 3.5 mph - N/A   Scattered Clouds
6:53 AM 75.9 °F - 75.0 °F 97% 30.08 in 10.0 mi Calm Calm - N/A   Scattered Clouds
7:53 AM 78.1 °F - 75.9 °F 93% 30.09 in 10.0 mi ENE 4.6 mph - N/A   Clear
8:53 AM 80.1 °F 85.8 °F 77.0 °F 90% 30.10 in 10.0 mi East 3.5 mph - N/A   Clear
9:53 AM 84.9 °F 97.5 °F 79.0 °F 82% 30.11 in 10.0 mi ESE 9.2 mph - N/A   Clear
10:53 AM 86.0 °F 96.0 °F 75.9 °F 72% 30.11 in 10.0 mi ESE 11.5 mph - N/A   Partly Cloudy
11:53 AM 88.0 °F 100.2 °F 77.0 °F 70% 30.12 in 10.0 mi ESE 12.7 mph - N/A   Scattered Clouds
12:53 PM 88.0 °F 98.5 °F 75.9 °F 67% 30.11 in 10.0 mi SE 13.8 mph - N/A   Partly Cloudy
1:53 PM 88.0 °F 97.5 °F 75.0 °F 65% 30.10 in 10.0 mi SE 10.4 mph 17.3 mph N/A   Partly Cloudy
2:53 PM 90.0 °F 101.3 °F 75.9 °F 63% 30.08 in 10.0 mi SE 10.4 mph - N/A   Scattered Clouds
3:38 PM 89.6 °F 102.2 °F 77.0 °F 66% 30.08 in 10.0 mi ESE 11.5 mph - N/A   Mostly Cloudy
3:49 PM 87.8 °F 97.6 °F 75.2 °F 66% 30.07 in 10.0 mi SE 11.5 mph - N/A   Scattered Clouds
3:53 PM 87.8 °F 97.6 °F 75.2 °F 66% 30.08 in 10.0 mi ESE 10.4 mph - N/A   Scattered Clouds
4:53 PM 87.1 °F 97.3 °F 75.9 °F 69% 30.08 in 10.0 mi SE 10.4 mph - N/A   Clear
5:53 PM 86.0 °F 93.8 °F 73.9 °F 67% 30.09 in 10.0 mi SE 6.9 mph - N/A   Clear
6:53 PM 82.9 °F 90.2 °F 75.0 °F 77% 30.08 in 10.0 mi East 11.5 mph - N/A   Clear
7:53 PM 81.0 °F 87.3 °F 75.9 °F 85% 30.09 in 10.0 mi East 6.9 mph - N/A   Clear
8:53 PM 80.1 °F 85.4 °F 75.9 °F 87% 30.12 in 10.0 mi East 4.6 mph - N/A   Clear
9:53 PM 80.1 °F 85.4 °F 75.9 °F 87% 30.14 in 10.0 mi East 3.5 mph - N/A   Clear
10:53 PM 81.0 °F 87.9 °F 77.0 °F 88% 30.17 in 10.0 mi East 6.9 mph - N/A   Mostly Cloudy
11:53 PM 82.0 °F 90.2 °F 77.0 °F 85% 30.14 in 10.0 mi ENE 6.9 mph - N/A   Clear